Cecil Field, FL

11:24 PM EDT on March 24, 2017 (GMT -0400)
Cecil

Weather History for KVQQ - June, 2014

Change the Weather History Date:

Tuesday, June 10, 2014

  Actual Average (KNIP) Record (KNIP)
Temperature  
Mean Temperature 80 °F -  
Max Temperature 91 °F 87 °F 102 °F (2007)
Min Temperature 68 °F 71 °F 66 °F (2000)
Cooling Degree Days 14    
Growing Degree Days 30 (Base 50)    
Moisture  
Dew Point 69 °F    
Average Humidity 86    
Maximum Humidity 100    
Minimum Humidity 49    
Precipitation  
Precipitation 0.00 in - - ()
Sea Level Pressure  
Sea Level Pressure 29.99 in    
Wind  
Wind Speed 2 mph (SSW)    
Max Wind Speed 17 mph    
Max Gust Speed 36 mph    
Visibility 8 miles    
Events Rain , Thunderstorm    
Averages and records for this station are not official NWS values.
T = Trace of Precipitation, MM = Missing Value Source: NWS Daily Summary

Daily Weather History Graph

Daily Weather History Graph

Search for Another Location

Airport or City:

Trip Planner

Search our weather history database for the weather conditions in past years. The results will help you decide how hot, cold, wet, or windy it might be!

Date:

Astronomy

Jun. 10, 2014 Rise Set
Actual Time 6:25 AM EDT 8:28 PM EDT
Civil Twilight 5:57 AM EDT 8:56 PM EDT
Nautical Twilight 5:24 AM EDT 9:29 PM EDT
Astronomical Twilight 4:48 AM EDT 10:05 PM EDT
Moon 6:01 PM EDT (6/10) 4:18 AM EDT (6/10)
Length of Visible Light 14h 58m
Length of Day
14h 03m
Waxing Gibbous, 92% of the Moon is Illuminated
Jun 10
Waxing Gibbous
Jun 13
Full
Jun 19
Last Quarter
Jun 27
New
Jul 5
First Quarter

Hourly Weather History & Observations

Time (EDT) Temp. Heat Index Dew Point Humidity Pressure Visibility Wind Dir Wind Speed Gust Speed Precip Events Conditions
12:15 AM 75.2 °F - 68.0 °F 78% 29.99 in 10.0 mi Calm Calm - N/A   Clear
12:35 AM 73.4 °F - 68.0 °F 83% 30.00 in 10.0 mi Calm Calm - N/A   Clear
12:55 AM 71.6 °F - 69.8 °F 94% 30.00 in 10.0 mi Calm Calm - N/A   Clear
1:15 AM 71.6 °F - 69.8 °F 94% 30.00 in 10.0 mi Calm Calm - N/A   Clear
1:35 AM 71.6 °F - 68.0 °F 88% 30.00 in 10.0 mi Calm Calm - N/A   Clear
1:55 AM 71.6 °F - 68.0 °F 88% 30.00 in 10.0 mi Calm Calm - N/A   Clear
2:15 AM 71.6 °F - 68.0 °F 88% 30.00 in 10.0 mi Calm Calm - N/A   Clear
2:35 AM 71.6 °F - 68.0 °F 88% 30.00 in 10.0 mi Calm Calm - N/A   Clear
2:55 AM 69.8 °F - 68.0 °F 94% 29.99 in 10.0 mi Calm Calm - N/A   Clear
3:15 AM 69.8 °F - 68.0 °F 94% 29.99 in 10.0 mi Calm Calm - N/A   Clear
3:35 AM 69.8 °F - 68.0 °F 94% 29.99 in 10.0 mi Calm Calm - N/A   Clear
3:55 AM 68.0 °F - 68.0 °F 100% 29.99 in 8.0 mi Calm Calm - N/A   Clear
4:15 AM 68.0 °F - 68.0 °F 100% 29.99 in 8.0 mi Calm Calm - N/A   Clear
4:35 AM 68.0 °F - 68.0 °F 100% 29.99 in 6.0 mi Calm Calm - N/A   Clear
5:15 AM 68.0 °F - 68.0 °F 100% 29.98 in 6.0 mi Calm Calm - N/A   Clear
5:35 AM 68.0 °F - 68.0 °F 100% 29.99 in 6.0 mi Calm Calm - N/A   Clear
5:55 AM 68.0 °F - 68.0 °F 100% 29.99 in 5.0 mi Calm Calm - N/A   Clear
6:15 AM 68.0 °F - 68.0 °F 100% 29.99 in 5.0 mi Calm Calm - N/A   Clear
6:35 AM 68.0 °F - 68.0 °F 100% 29.99 in 4.0 mi Calm Calm - N/A   Clear
7:50 AM 73.4 °F - 71.6 °F 94% 30.00 in 10.0 mi Calm Calm - N/A   Clear
8:50 AM 80.6 °F 85.4 °F 73.4 °F 79% 30.01 in 10.0 mi Calm Calm - N/A   Clear
10:50 AM 86.0 °F 93.4 °F 73.4 °F 66% 30.02 in 10.0 mi West 6.9 mph - N/A   Scattered Clouds
11:50 AM 89.6 °F 98.2 °F 73.4 °F 59% 30.01 in 10.0 mi West 4.6 mph - N/A   Scattered Clouds
1:50 PM 91.4 °F 100.1 °F 73.4 °F 55% 29.98 in 10.0 mi WSW 8.1 mph - N/A   Mostly Cloudy
2:50 PM 91.4 °F 98.4 °F 71.6 °F 52% 29.97 in 10.0 mi South 5.8 mph - N/A   Mostly Cloudy
4:50 PM 91.4 °F 96.8 °F 69.8 °F 49% 29.93 in 10.0 mi Variable 5.8 mph - N/A   Mostly Cloudy
5:17 PM 87.8 °F 95.6 °F 73.4 °F 62% 29.93 in 7.0 mi East 13.8 mph - N/A Thunderstorm Thunderstorm
5:30 PM 77.0 °F - 73.4 °F 89% 29.99 in 0.8 mi ESE 17.3 mph 35.7 mph N/A Rain , Thunderstorm Heavy Thunderstorms and Rain
5:50 PM 73.4 °F - 64.4 °F 73% 29.97 in 2.0 mi ENE 5.8 mph - N/A Rain , Thunderstorm Thunderstorms and Rain
6:08 PM 71.6 °F - 66.2 °F 83% 29.97 in 5.0 mi North 11.5 mph - N/A Rain Light Rain
6:50 PM 71.6 °F - 68.0 °F 88% 29.99 in 7.0 mi Variable 5.8 mph - N/A   Partly Cloudy
7:50 PM 73.4 °F - 69.8 °F 88% 30.01 in 7.0 mi South 6.9 mph - N/A   Mostly Cloudy
8:15 PM 73.4 °F - 68.0 °F 83% 30.01 in 10.0 mi South 6.9 mph - N/A Thunderstorm Scattered Clouds
8:35 PM 73.4 °F - 68.0 °F 83% 30.01 in 10.0 mi SSW 8.1 mph - N/A   Mostly Cloudy
8:55 PM 73.4 °F - 69.8 °F 88% 30.00 in 8.0 mi SSW 6.9 mph - N/A Rain Light Rain
9:15 PM 73.4 °F - 68.0 °F 83% 30.01 in 10.0 mi Calm Calm - N/A Rain , Thunderstorm Light Rain
9:35 PM 71.6 °F - 68.0 °F 88% 30.01 in 10.0 mi Calm Calm - N/A   Clear
9:55 PM 71.6 °F - 68.0 °F 88% 30.00 in 10.0 mi WSW 3.5 mph - N/A   Clear
10:15 PM 71.6 °F - 68.0 °F 88% 30.01 in 10.0 mi SSW 4.6 mph - N/A   Clear
10:35 PM 71.6 °F - 68.0 °F 88% 30.00 in 10.0 mi Calm Calm - N/A   Clear
10:55 PM 69.8 °F - 68.0 °F 94% 29.99 in 10.0 mi Calm Calm - N/A   Clear
11:15 PM 68.0 °F - 68.0 °F 100% 29.99 in 10.0 mi Calm Calm - N/A   Clear
11:35 PM 68.0 °F - 68.0 °F 100% 29.99 in 10.0 mi Calm Calm - N/A   Clear
11:55 PM 68.0 °F - 68.0 °F 100% 29.99 in 9.0 mi Calm Calm - N/A   Clear